Wind_Speed
5 5 4 2 4 8 10 12 12 10 8 4 1 1 2 2 3 2 4 9 7 7 12 13 10 10 10 10 10 9 9 9 10 10 10 10 10 9 8 7 7 7 5 5 5 3 2 3 5 6 8 10 9 7 8 10 10 10 12 15 17 17 18 21 19 16 15 16 17 18 17 16 14 13 13 15 16 16 15 12 11 10 10 9 9 8 9
4 7 6 3 4 8 13 15 14 12 10 8 6 4 4 3 2 2 4 8 4 4 11 12 9 9 10 9 9 9 10 11 11 11 11 11 10 9 8 7 7 8 7 6 6 5 4 3 3 5 7 8 5 5 6 9 10 11 14 16 17 18 18 20 20 18 18 18 20 20 19 18 18 16 14 12 13 15 16 16 15 14 13 12 10 9 9
4 8 7 3 3 7 14 17 16 15 12 10 9 6 5 5 3 2 6 8 5 4 9 11 9 9 10 10 10 10 10 10 11 12 11 10 9 7 6 6 7 8 8 8 7 7 6 4 4 3 2 3 7 7 8 10 11 11 14 15 16 16 15 15 16 17 18 19 20 21 21 21 21 19 16 14 14 15 15 16 16 14 14 12 11 10 10
3 7 9 6 1 2 11 16 16 15 13 8 7 7 6 5 3 4 7 6 3 5 9 10 9 9 11 12 11 9 9 9 11 12 11 9 7 6 6 6 8 9 9 9 8 8 7 7 7 6 7 10 11 9 7 8 9 9 10 10 10 11 11 13 15 16 17 17 18 19 20 18 17 17 15 13 14 14 14 14 13 10 9 9 9 8 8
2 7 9 7 2 1 6 11 10 9 9 7 4 5 7 6 4 1 2 3 3 9 11 10 10 10 10 10 9 7 8 8 9 11 11 9 8 7 6 6 8 9 9 10 9 9 10 10 11 11 12 14 13 12 11 10 11 11 10 8 8 7 8 10 12 15 16 17 18 18 16 14 13 13 13 11 10 10 9 8 8 7 5 5 5 5 5
1 5 7 5 4 3 2 4 5 3 5 8 5 4 6 6 5 3 3 2 7 12 12 11 12 9 7 6 5 5 6 7 8 9 10 10 9 8 7 7 8 9 10 11 11 12 13 14 15 18 19 18 18 18 18 17 17 17 16 15 14 14 12 11 10 10 10 11 12 12 13 15 15 13 13 11 9 8 7 7 7 7 6 5 4 3 3
2 1 3 1 1 2 3 1 4 2 1 5 3 3 6 8 6 5 4 4 9 11 10 11 10 8 7 7 6 5 5 6 8 9 9 8 9 8 7 7 9 10 11 12 12 13 14 15 16 19 20 20 20 20 21 22 22 22 22 22 21 20 19 17 16 14 12 12 13 13 14 17 17 15 14 12 11 10 9 7 7 6 6 6 5 3 2
1 2 1 2 1 2 1 1 4 3 1 4 1 3 7 10 7 4 5 8 9 9 10 10 9 9 9 8 6 5 4 4 6 8 8 7 8 8 7 9 10 11 12 13 13 14 17 19 19 19 20 21 22 22 22 24 23 23 24 24 23 22 21 19 18 16 14 13 14 14 15 16 16 15 14 12 11 10 10 8 6 5 5 5 5 4 3
0 2 2 1 1 2 2 1 3 3 2 4 3 1 5 8 7 3 5 9 10 10 10 10 10 10 9 7 5 4 3 3 4 5 7 7 8 9 9 10 12 13 14 16 17 18 21 25 25 25 25 25 25 25 26 25 24 23 23 22 22 22 22 21 19 16 14 13 13 12 12 13 13 12 11 10 9 8 8 8 8 6 6 5 5 4 4
1 1 4 3 4 4 2 2 4 3 3 4 4 2 2 6 7 3 3 9 11 11 11 11 11 9 6 4 2 3 4 4 5 6 7 8 9 10 12 13 14 14 14 17 19 21 25 27 26 24 24 24 25 25 25 24 24 23 22 20 19 20 19 19 19 17 16 15 14 12 11 11 11 11 9 8 7 6 5 6 7 6 5 5 5 4 3
0 2 3 3 3 2 1 5 8 6 3 3 4 2 2 5 6 4 2 7 10 11 12 13 11 8 6 4 4 4 5 5 5 6 7 8 9 10 11 13 14 14 14 16 18 20 22 23 22 21 20 20 22 22 21 20 20 21 20 19 19 19 18 17 18 19 18 17 17 15 13 12 12 11 10 9 8 8 7 6 6 6 5 5 5 5 4
2 1 2 2 1 2 3 7 10 8 3 2 3 1 2 4 5 3 2 5 8 9 11 11 9 6 5 6 6 6 6 5 5 5 7 7 9 10 11 12 14 15 15 16 16 16 16 17 18 21 22 23 22 20 17 16 16 16 17 15 15 17 19 19 19 19 18 17 17 16 15 15 14 13 12 11 11 11 10 9 8 8 7 8 8 7 6
2 2 3 2 1 1 3 7 10 8 2 2 1 1 1 3 4 2 2 3 5 7 8 7 3 1 4 7 9 9 9 7 4 4 6 8 8 10 11 13 15 16 15 15 15 15 16 17 19 21 23 24 23 20 18 17 16 15 17 17 15 15 17 18 18 17 17 16 17 16 16 15 15 14 14 13 13 13 12 10 11 11 11 10 10 10 10
2 2 2 2 1 2 4 8 8 4 2 1 2 2 1 2 3 1 3 3 3 4 4 1 2 3 6 8 9 9 9 9 6 4 6 8 8 9 11 13 16 17 15 15 16 15 15 17 18 18 21 23 23 22 21 19 17 16 16 17 17 16 16 15 16 16 16 15 15 14 14 14 14 14 14 14 14 14 13 13 13 14 13 11 10 11 12
1 1 2 1 2 3 4 8 5 2 2 2 2 2 2 2 2 3 4 5 3 3 3 2 4 7 8 8 9 9 8 9 8 6 7 8 9 10 11 11 14 17 16 14 14 13 12 13 13 14 18 21 21 21 21 18 16 15 14 15 16 17 16 15 15 14 15 14 13 13 12 12 12 12 12 12 13 13 13 13 13 13 13 11 9 9 10
0 1 2 2 1 2 5 5 3 3 3 2 1 2 2 1 1 2 3 5 4 3 4 5 6 10 11 10 10 10 8 7 8 8 7 7 8 10 10 10 12 15 17 15 14 13 13 13 12 12 15 18 19 19 19 17 15 14 14 14 15 15 15 14 14 13 13 13 12 12 12 11 11 11 11 10 11 11 11 10 10 9 9 8 7 7 7
1 2 2 2 2 2 3 2 1 2 3 2 2 3 2 2 2 1 2 3 5 4 5 7 7 9 11 11 11 11 10 8 9 9 9 7 7 9 10 11 12 14 15 15 15 15 14 13 13 13 14 17 19 19 17 15 14 14 13 13 14 13 13 12 12 11 12 12 12 11 11 10 10 10 9 9 9 9 9 9 8 7 7 6 6 6 6
1 1 2 2 2 2 3 2 0 1 2 2 2 2 2 3 3 2 1 3 5 5 6 7 7 7 9 11 11 10 10 9 9 10 10 10 10 10 10 12 13 13 14 14 14 15 15 14 14 14 14 16 18 17 15 13 12 12 12 12 12 12 11 10 10 10 10 10 10 10 10 10 9 9 9 8 7 7 7 7 7 6 5 5 5 5 5
1 1 1 1 2 2 4 3 0 1 1 2 2 2 2 3 4 3 1 2 5 6 6 7 8 8 10 11 10 10 9 10 10 11 11 11 11 12 13 14 14 13 12 12 12 13 14 13 14 15 16 16 17 15 13 11 10 9 10 10 10 10 9 9 8 8 8 8 8 8 9 8 7 8 8 7 7 7 6 6 6 5 5 5 5 5 5
0 1 2 1 2 2 3 3 1 1 2 3 2 2 2 2 3 3 2 1 3 5 6 7 9 10 10 10 10 9 8 10 11 11 12 12 12 13 15 16 15 13 11 11 11 12 13 13 13 15 15 15 14 12 11 9 7 7 8 8 8 7 7 6 7 7 7 7 7 7 8 7 7 7 7 6 6 6 6 6 5 5 4 4 4 5 5
1 1 2 2 1 1 0 1 1 1 2 2 2 3 3 4 4 4 3 3 1 2 4 6 9 9 9 10 12 11 9 10 11 12 13 14 14 16 18 17 14 12 12 12 12 12 13 12 12 12 12 12 10 10 9 8 7 7 8 7 7 6 5 5 6 6 6 6 6 6 6 6 6 6 6 5 4 4 5 4 4 3 3 3 4 4 4
2 2 3 4 2 1 2 1 0 1 2 2 2 3 4 4 4 3 3 3 2 2 1 4 6 8 8 10 12 12 10 11 14 15 15 15 16 18 18 17 14 12 11 12 13 13 13 12 11 10 10 9 9 8 8 8 7 8 7 6 6 5 5 4 5 5 5 5 6 6 5 5 5 5 5 4 4 3 3 3 3 3 3 3 3 3 3
1 1 4 4 1 1 3 3 1 0 2 3 3 4 4 4 3 2 2 3 2 0 1 3 5 6 8 11 13 11 10 12 14 16 17 18 18 18 18 18 16 12 11 11 12 13 13 11 9 8 8 7 7 7 6 7 7 7 6 5 5 5 5 4 4 4 4 4 4 4 4 4 3 3 3 3 3 3 3 3 3 3 3 3 3 3 3
1 1 3 4 2 2 3 3 1 1 0 1 3 3 3 3 3 2 1 1 2 3 3 3 4 5 7 11 13 11 11 13 14 15 16 17 18 18 19 19 18 16 15 15 14 14 14 12 10 8 7 5 4 4 4 4 5 6 6 5 4 4 3 3 3 2 2 2 2 2 3 3 2 2 2 2 2 3 3 3 4 4 5 4 3 2 2
1 1 3 3 2 3 3 2 1 1 0 1 2 2 2 3 4 4 3 3 1 1 4 4 4 4 6 10 11 11 12 14 16 16 15 15 15 17 19 20 20 20 20 20 19 18 17 15 12 10 8 6 5 4 3 3 3 4 4 4 4 3 2 2 1 1 1 2 2 2 2 2 2 2 1 1 2 2 3 3 3 4 4 4 3 2 2
0 2 4 3 2 2 2 1 1 2 2 1 1 2 3 2 3 4 5 4 4 2 1 4 5 5 7 8 9 9 9 11 12 13 13 14 15 16 19 22 23 23 24 23 23 21 19 17 15 12 10 9 7 6 5 4 3 3 2 2 2 1 1 1 1 1 2 2 2 2 2 2 2 2 2 2 2 2 2 2 2 2 2 1 2 5 5
2 3 5 4 3 3 3 2 3 4 3 2 2 2 3 2 2 2 3 4 4 4 2 1 3 5 7 8 7 6 5 6 9 11 12 14 17 21 24 25 25 24 25 25 25 23 21 19 17 14 12 12 10 9 8 6 4 3 2 1 1 1 1 1 1 1 2 2 2 2 2 2 2 2 2 2 2 2 2 2 2 2 2 3 5 8 6
3 3 3 1 2 2 2 2 5 5 4 3 3 2 2 2 1 1 1 2 3 3 3 2 0 3 6 8 9 9 7 7 9 11 13 14 17 20 24 25 25 25 26 26 26 24 22 21 19 16 15 14 13 11 10 7 5 3 2 2 1 1 1 1 1 1 2 2 2 2 3 2 3 3 3 3 3 2 2 2 3 3 3 4 6 7 5
4 4 2 1 2 3 4 5 5 4 3 3 3 3 1 1 1 0 1 2 2 2 2 3 1 2 3 5 7 10 10 11 11 12 13 13 11 13 17 19 20 22 24 26 26 25 24 23 21 18 17 17 15 13 11 8 6 4 3 2 2 1 1 1 1 2 2 3 3 3 3 3 3 3 3 3 3 2 3 3 3 4 4 4 5 5 5
3 3 3 3 3 4 5 4 4 3 3 3 3 3 1 1 1 0 1 1 1 1 2 2 1 1 2 4 6 8 10 11 12 14 16 15 13 13 15 15 14 14 17 23 26 26 25 24 23 21 20 19 16 14 11 8 6 5 3 2 2 1 2 2 2 2 3 3 3 3 3 3 3 3 3 3 3 3 4 4 4 4 5 4 4 4 5
5 4 4 4 4 4 4 4 3 3 2 2 2 2 2 1 1 1 1 1 0 1 1 1 1 1 1 3 4 6 8 9 11 13 16 19 20 20 19 18 17 18 21 26 28 27 27 26 24 22 21 19 17 14 11 9 7 6 4 3 2 2 3 2 2 3 3 3 4 4 4 4 3 3 4 4 4 4 4 4 4 4 4 4 5 5 5
7 5 4 4 4 4 4 3 3 4 3 2 2 2 2 1 1 1 1 1 1 1 1 2 2 2 3 3 3 4 6 8 10 11 12 16 21 23 23 23 24 25 26 28 29 29 28 27 25 23 22 20 16 13 11 9 7 6 4 3 3 2 3 3 3 4 4 4 4 4 4 4 4 4 4 4 4 5 4 4 4 4 5 5 5 5 6
8 5 4 5 5 4 4 4 4 4 4 3 2 2 2 2 3 2 2 2 2 2 3 3 4 4 4 4 4 4 5 6 7 9 10 12 18 23 27 27 27 27 26 25 25 26 28 27 25 24 22 19 16 13 11 9 7 5 4 3 3 3 3 4 4 4 5 4 4 4 4 5 5 5 5 4 4 4 4 5 5 5 5 6 6 6 7
6 3 3 5 5 4 4 5 4 3 3 3 3 3 4 4 4 4 4 4 4 5 6 5 5 5 5 6 6 6 6 6 6 8 10 12 16 21 25 26 26 27 26 23 21 23 26 26 25 24 21 18 15 13 11 9 7 5 5 4 3 3 3 4 4 4 5 5 4 4 5 5 5 5 4 4 4 4 5 5 5 6 6 6 6 6 7
3 4 4 4 4 2 2 3 3 2 3 3 3 3 4 5 5 6 6 6 7 7 7 7 7 7 7 7 7 7 8 9 9 10 11 12 14 18 21 21 22 22 22 20 21 25 27 27 26 24 21 18 15 13 11 9 7 6 5 4 3 3 4 4 5 5 6 5 5 5 5 5 5 5 4 4 4 4 4 5 5 5 5 6 6 6 7
5 5 5 4 3 2 1 1 1 1 2 3 3 3 4 4 5 6 7 8 9 9 9 9 9 9 9 9 9 10 11 11 12 12 12 12 14 17 19 20 21 20 18 17 21 26 28 27 26 23 20 17 15 12 10 9 7 6 5 4 3 4 4 4 5 6 6 6 6 5 5 5 5 4 4 4 4 4 5 5 5 6 6 6 6 7 7
5 6 5 4 4 3 2 1 1 2 3 4 4 5 6 7 7 8 9 9 10 11 11 11 11 11 11 11 12 12 12 12 12 13 12 12 13 16 17 17 18 18 16 16 21 27 28 27 24 22 19 17 14 12 10 9 8 6 5 4 4 3 3 3 4 5 5 5 5 5 5 5 4 4 4 4 4 5 6 6 6 6 6 6 7 7 8
7 7 6 4 3 2 1 2 3 4 5 6 7 7 8 9 9 10 10 11 12 12 13 12 12 12 12 12 12 12 12 12 13 13 12 12 13 15 15 15 17 17 16 19 25 29 27 24 23 21 19 17 14 12 11 10 9 7 5 4 4 3 3 3 3 4 4 4 5 4 3 3 3 4 4 5 5 6 6 6 6 6 6 6 7 7 8
6 5 4 3 2 1 3 4 5 6 7 8 9 9 10 10 11 11 12 12 13 13 13 13 12 12 12 12 13 13 12 12 13 13 12 12 13 14 14 14 16 17 20 25 29 28 25 23 23 21 18 16 14 12 11 10 9 6 4 3 3 3 2 2 3 4 4 4 4 3 2 2 4 5 5 5 5 5 5 5 5 6 6 6 7 7 8
4 3 3 2 2 3 4 5 6 7 8 8 9 10 11 11 12 12 12 12 13 14 14 13 12 12 12 12 13 13 13 12 12 12 11 12 12 12 12 11 12 17 24 28 27 25 24 24 21 18 15 14 13 11 10 8 6 4 3 3 2 2 2 2 3 4 4 4 4 3 3 4 5 5 5 5 5 5 5 5 6 6 6 7 7 7 8
3 2 2 2 3 4 4 6 7 8 9 9 9 10 11 11 12 12 13 13 13 14 14 13 13 14 14 14 14 14 13 12 11 11 12 13 13 13 13 11 12 19 27 27 23 22 24 22 18 15 14 13 12 11 9 7 5 4 2 2 2 2 2 3 3 4 4 4 3 4 5 5 5 5 4 4 4 4 5 6 6 6 6 7 7 7 8
3 2 2 2 3 4 5 6 7 8 9 10 9 9 10 11 11 12 14 14 14 14 15 15 15 16 16 16 15 14 13 12 11 11 13 15 15 15 15 13 15 21 25 23 21 23 23 19 15 16 15 12 11 10 9 7 5 3 2 1 1 2 3 3 3 4 4 3 3 4 5 5 4 4 4 4 4 5 5 6 6 6 6 7 7 8 8
3 2 2 3 3 4 5 5 6 7 9 9 8 8 9 9 10 11 13 14 14 15 16 16 17 16 16 16 16 14 12 11 10 11 12 12 13 15 16 17 18 22 23 22 22 23 21 17 16 15 14 12 12 10 8 6 5 3 2 1 0 2 2 3 3 3 3 3 4 4 4 4 3 4 4 4 5 5 5 6 6 6 7 7 7 8 9
3 2 2 2 3 4 5 6 6 7 8 8 7 6 7 8 10 11 12 13 13 14 14 15 16 15 15 15 15 13 11 11 11 13 13 11 9 11 15 19 22 23 23 22 22 21 19 17 15 13 11 12 12 10 7 5 4 3 3 3 1 1 2 3 3 3 3 3 3 3 3 3 3 3 4 4 5 5 5 5 6 6 7 7 8 8 9
3 2 1 2 5 6 6 6 6 6 7 6 5 4 6 8 10 10 10 11 11 12 12 13 14 15 15 15 14 13 13 13 14 16 16 13 12 14 19 23 24 23 22 21 21 19 18 16 14 12 11 12 11 8 5 4 4 4 4 3 2 2 2 2 2 2 2 2 2 2 2 3 3 3 4 4 4 5 5 5 6 6 6 7 7 8 9
2 1 1 4 6 6 6 6 6 5 5 3 3 4 6 7 8 8 9 9 8 8 9 9 10 10 11 10 8 8 9 10 12 14 16 17 19 23 25 24 22 22 22 21 19 18 17 14 12 11 12 11 8 6 4 4 4 5 5 4 3 3 3 2 2 2 1 1 1 2 2 2 2 3 3 4 4 4 5 5 5 5 5 6 7 7 8
1 1 3 5 6 6 6 5 4 3 2 2 3 5 5 6 7 8 9 9 9 9 9 8 7 5 3 5 8 11 13 13 12 11 14 19 24 26 25 22 21 21 20 18 17 16 15 12 10 10 11 9 6 4 4 4 4 5 5 4 4 4 3 2 2 1 1 0 1 2 2 2 2 3 3 3 4 4 4 4 5 5 5 6 6 7 8
1 2 3 4 5 5 5 4 4 4 5 6 6 5 5 7 8 9 10 12 13 14 15 16 17 16 16 15 15 14 15 16 16 16 20 26 28 25 22 22 21 19 17 15 14 13 11 9 9 10 10 8 5 5 5 5 4 4 4 4 4 4 3 2 2 1 1 1 2 2 2 2 3 4 3 3 3 4 3 4 4 4 5 6 6 7 8
1 2 3 3 4 4 4 4 4 5 6 7 6 5 5 7 8 9 10 13 15 16 16 17 19 20 20 19 19 18 18 19 20 20 22 25 25 22 20 20 18 17 16 15 14 12 10 9 10 10 9 7 6 6 5 4 4 3 3 3 3 3 2 2 1 1 2 2 3 3 3 2 3 4 3 3 3 3 3 3 4 4 5 6 6 7 8
3 4 4 3 3 3 4 5 5 6 6 6 5 5 6 7 8 8 9 11 12 13 14 15 17 19 20 20 20 20 20 20 20 20 20 20 20 20 19 17 15 15 15 14 12 11 11 10 10 9 8 7 7 6 5 4 4 3 2 2 2 1 1 1 2 2 3 4 4 4 3 3 3 3 3 3 3 3 3 3 4 4 5 6 6 7 7
4 4 4 4 4 3 4 5 6 6 6 6 6 7 7 7 8 9 9 10 11 12 12 12 13 15 16 18 20 20 20 19 18 18 17 16 16 16 15 13 13 14 13 11 10 10 11 11 10 9 8 8 7 7 6 4 3 2 1 1 1 1 2 2 3 4 4 4 4 4 4 4 3 3 3 3 3 3 3 3 4 5 5 6 6 7 7
5 5 5 6 5 5 5 6 6 6 6 7 6 6 7 7 7 7 7 7 8 10 10 10 11 11 12 14 16 17 17 17 17 16 14 14 14 13 12 12 11 12 11 11 10 9 10 10 10 9 9 8 7 6 5 4 3 2 1 1 1 1 2 2 3 4 4 4 4 4 4 3 3 3 3 3 2 2 3 4 4 5 6 6 6 6 7
Wind_Direction
66 58 61 73 86 77 59 45 37 26 21 32 90 94 53 113 198 245 163 171 185 175 171 175 170 158 150 148 149 142 137 133 131 133 130 129 133 132 136 143 130 124 138 147 143 147 151 167 193 210 217 213 202 196 205 209 208 199 194 203 212 212 216 222 225 225 227 231 237 245 248 243 234 230 236 239 237 235 232 230 233 236 237 240 242 244 250
50 53 59 94 106 75 56 46 35 29 35 43 56 69 41 13 341 345 149 156 131 134 167 167 155 152 148 144 144 141 141 140 137 137 135 134 138 138 140 138 126 132 147 147 140 137 129 126 151 190 218 223 194 148 169 192 191 187 186 189 195 200 206 212 215 218 224 230 234 237 241 241 234 227 230 237 235 232 228 226 229 232 234 238 241 243 248
25 31 30 50 98 71 55 43 29 25 29 30 34 34 6 354 14 77 125 126 95 121 159 150 138 142 143 142 142 141 143 144 140 138 136 134 136 136 134 122 117 126 129 130 132 125 113 106 109 130 158 152 144 147 171 186 181 179 184 187 191 194 195 199 207 215 224 229 229 228 228 232 231 226 225 230 234 232 228 225 227 231 235 239 242 244 247
359 3 1 359 314 86 49 34 21 16 20 23 27 23 7 356 19 91 118 118 118 147 145 135 130 135 140 143 143 144 148 148 146 143 137 133 133 133 130 118 118 124 119 115 118 111 100 89 77 74 84 100 120 141 155 160 165 172 181 186 191 194 189 191 201 210 218 221 217 216 219 222 223 219 216 220 227 229 228 227 224 224 229 235 241 247 248
313 336 343 351 349 95 39 21 2 0 16 23 39 36 20 2 355 28 85 60 130 153 144 134 137 140 140 144 145 149 150 145 143 142 137 136 137 137 131 114 109 113 109 106 104 96 88 79 72 76 87 96 106 117 116 117 126 135 141 148 155 165 172 181 193 204 212 215 212 211 212 210 206 203 199 201 208 211 214 214 208 204 206 212 224 237 244
200 317 330 354 26 48 74 21 340 325 14 24 44 51 10 349 341 339 351 55 148 160 152 143 148 145 133 130 127 129 140 139 134 135 138 142 143 138 131 116 103 101 104 105 100 91 85 81 82 89 96 98 100 104 106 110 116 119 119 118 119 119 122 128 141 161 176 182 184 187 186 181 179 180 179 181 186 182 176 176 182 185 183 183 192 204 235
152 318 324 276 59 57 146 120 350 326 30 19 53 91 25 6 3 8 32 115 147 151 139 134 141 132 109 98 90 100 126 137 135 137 141 145 146 143 131 117 105 101 104 104 99 94 91 88 88 91 95 97 96 93 96 101 104 107 107 105 104 104 105 107 109 113 115 119 127 135 143 149 152 154 158 161 163 160 161 170 183 190 191 191 191 186 205
148 148 140 191 164 41 129 186 356 6 14 358 14 111 40 15 358 16 80 118 130 123 115 115 118 114 103 89 77 87 109 129 144 147 146 144 146 141 128 114 109 107 108 105 102 99 98 97 95 92 92 94 92 88 89 90 90 92 95 95 92 92 93 94 98 104 108 110 115 121 126 131 135 139 144 147 147 148 154 161 170 186 193 184 175 176 178
143 139 104 117 156 79 94 61 9 12 347 338 329 106 42 17 354 12 113 134 132 118 111 113 115 115 106 88 69 80 109 130 138 133 128 126 124 120 114 108 106 106 106 107 105 102 100 100 100 100 99 97 93 89 87 85 82 80 82 84 84 84 86 89 94 98 102 103 107 115 118 118 120 126 135 141 142 140 142 146 151 166 179 175 175 187 194
324 150 125 140 175 161 118 351 337 330 294 288 264 210 63 24 2 357 134 141 137 132 130 129 129 124 115 112 120 128 138 136 124 113 111 110 110 110 112 112 110 108 108 110 110 108 106 105 105 107 106 102 95 89 85 83 81 74 69 72 79 81 82 89 96 99 100 101 105 110 109 105 106 111 117 126 134 133 127 129 132 138 148 155 158 158 165
172 180 152 153 167 139 21 318 313 321 317 248 232 224 50 27 1 339 167 147 147 151 147 144 149 149 148 160 158 143 138 126 115 112 107 105 110 113 117 119 116 111 109 111 112 111 110 111 113 113 111 107 102 94 88 86 84 77 71 70 77 83 84 86 93 97 100 103 107 110 108 104 105 106 105 108 117 120 116 114 118 123 129 130 124 117 118
116 152 135 109 82 56 339 311 315 329 351 177 212 256 30 22 360 334 229 166 159 161 157 157 167 172 163 158 143 123 113 97 84 95 107 112 119 119 117 118 115 112 110 108 107 106 107 111 115 113 110 108 105 101 97 93 88 86 87 85 84 88 88 85 86 89 91 94 98 101 100 97 96 98 100 103 109 111 109 106 107 111 113 112 108 108 113
88 90 105 103 75 30 321 307 314 323 315 166 142 22 19 349 342 316 231 198 169 166 169 169 172 118 118 134 134 127 121 114 97 111 124 124 121 118 117 119 119 116 112 107 105 106 109 113 114 111 108 104 101 100 97 92 90 95 102 104 102 96 90 86 84 87 90 90 89 90 92 92 91 91 92 96 100 100 99 102 108 111 109 105 101 98 99
62 71 91 99 113 79 333 306 302 301 262 159 51 16 279 276 293 235 192 188 171 169 174 137 63 94 114 120 127 133 136 134 136 150 139 124 113 110 113 120 122 117 111 108 108 109 112 113 111 109 107 104 103 101 97 95 97 100 100 100 99 96 94 90 87 86 89 90 87 84 84 87 88 86 84 88 93 94 96 101 106 109 108 103 99 94 88
57 104 102 93 119 91 351 318 309 355 20 48 35 336 282 237 253 233 185 169 161 167 162 101 103 134 136 127 130 140 144 139 138 146 143 129 120 116 114 118 121 117 110 105 104 105 107 108 107 108 107 106 105 104 103 103 104 101 99 98 96 93 92 91 86 81 80 83 84 80 77 80 82 80 78 81 86 91 96 98 97 98 100 100 100 98 89
321 76 90 57 18 14 351 343 15 43 12 1 317 300 306 327 283 243 195 170 155 158 152 132 133 145 147 146 146 142 141 143 141 136 130 124 126 127 119 115 117 116 113 107 103 105 109 109 107 108 108 107 106 105 107 110 109 104 102 101 97 92 88 84 81 77 74 74 75 73 71 74 76 74 73 73 77 82 86 87 86 83 82 84 87 90 88
309 359 31 14 328 317 330 351 25 1 345 328 282 279 294 333 349 293 220 171 151 150 145 135 137 145 147 150 152 146 145 153 148 134 127 128 130 127 120 117 117 115 114 111 107 105 109 112 111 111 112 111 108 108 111 113 111 107 104 99 93 89 84 81 79 76 74 71 68 66 66 67 67 67 64 63 64 68 70 72 71 63 54 55 59 63 68
187 329 343 329 322 344 358 2 253 309 344 351 321 313 328 341 334 309 255 167 149 150 150 143 138 139 142 143 145 146 144 146 145 138 136 137 136 129 125 125 124 120 116 114 110 107 108 110 111 112 115 113 110 111 113 110 105 103 100 96 92 88 85 83 81 78 75 70 65 63 60 59 59 56 54 52 50 51 54 57 58 56 45 38 40 43 45
190 151 120 355 347 358 354 355 114 132 33 26 355 355 10 355 332 323 319 158 151 148 150 148 139 140 144 140 139 143 144 146 157 158 149 145 145 142 140 141 139 134 126 119 114 111 108 108 108 110 111 112 112 113 111 105 100 97 93 91 91 88 85 82 78 75 72 67 63 59 54 51 50 47 43 43 42 40 40 40 41 46 44 33 31 31 29
175 113 115 33 345 334 333 345 27 75 55 63 65 46 39 33 21 15 17 61 153 156 157 152 144 147 154 149 144 151 154 155 164 165 155 149 148 143 143 146 146 141 132 126 123 119 116 115 115 112 110 112 113 113 111 109 105 97 92 90 88 84 79 74 70 66 62 59 56 53 49 45 44 43 39 38 41 39 35 30 25 26 33 36 30 21 16
170 182 177 188 247 266 271 3 7 26 30 45 75 87 76 65 62 54 36 27 32 184 175 161 151 151 160 161 159 163 166 163 164 164 157 153 151 148 148 150 151 150 145 140 136 132 129 129 125 119 116 115 115 114 115 116 113 106 101 94 85 78 72 68 67 61 56 55 52 49 47 44 45 46 43 47 58 50 39 44 45 34 31 33 25 15 13
216 200 173 172 191 208 156 147 120 34 353 343 29 68 64 58 69 83 76 54 19 328 240 187 169 159 164 172 171 169 172 172 167 163 159 155 153 154 156 154 155 161 163 156 149 144 143 144 138 130 125 120 118 118 117 114 113 110 105 96 86 77 70 67 67 60 54 54 51 48 45 42 42 40 38 50 76 79 68 76 88 83 75 63 41 26 16
246 160 159 163 169 99 140 158 171 7 335 339 12 36 39 38 49 82 110 108 108 166 251 234 211 180 171 177 178 175 175 173 168 166 165 163 160 162 164 160 157 164 174 173 166 161 159 158 151 143 138 129 121 119 115 112 111 108 102 94 86 77 71 71 70 62 53 52 49 44 38 34 31 28 23 30 51 68 75 86 98 106 111 106 84 61 34
117 165 171 169 154 113 138 163 168 83 346 350 17 24 24 26 21 7 24 108 143 162 179 216 228 210 187 183 183 182 176 172 174 175 173 168 166 167 169 167 167 175 186 188 184 179 175 173 170 166 161 154 142 133 123 115 110 102 96 92 87 79 75 74 70 56 46 42 34 25 22 21 19 16 6 357 358 8 27 60 96 114 123 120 107 84 45
133 158 156 161 146 105 111 134 117 98 172 296 19 31 28 27 26 25 27 27 26 167 172 178 190 202 198 192 191 189 183 180 182 182 177 173 172 173 176 178 182 188 191 191 192 191 186 183 184 182 178 178 177 171 165 151 128 108 95 92 87 76 66 60 44 18 4 359 350 349 354 355 354 350 343 337 335 334 342 8 65 91 101 110 101 28 360
50 95 120 136 135 116 130 175 161 127 121 110 71 60 59 59 54 46 42 37 33 35 168 178 175 177 186 196 201 200 193 190 189 186 183 182 182 183 187 191 192 192 191 191 192 192 190 189 190 188 185 187 189 189 188 182 165 140 115 104 94 77 56 358 325 322 325 323 319 323 333 336 329 325 320 323 322 319 322 331 351 12 22 30 344 340 347
167 150 146 151 165 189 209 198 134 122 114 104 90 71 66 79 88 73 53 45 41 35 29 176 183 178 179 185 192 197 199 199 198 199 200 197 195 197 199 199 196 194 193 192 193 193 193 193 191 188 188 191 192 192 193 191 188 183 175 162 147 139 175 241 288 294 292 298 303 305 306 309 308 304 300 302 304 301 307 312 305 301 301 299 312 324 341
174 182 186 183 172 177 169 125 123 126 120 111 108 100 88 90 105 117 81 50 38 30 29 30 126 198 194 192 190 192 197 203 207 214 217 213 209 207 205 201 199 197 195 195 196 195 195 194 191 187 190 193 192 192 195 197 194 192 192 191 178 167 185 219 258 277 278 279 277 277 283 285 283 283 285 286 287 281 281 290 292 289 285 289 303 316 332
182 181 186 131 100 116 120 124 134 133 121 115 119 118 129 144 143 99 68 53 30 16 38 40 15 251 238 222 207 202 204 205 209 217 221 222 224 219 210 204 201 199 199 199 198 197 196 195 191 188 189 192 191 191 193 195 195 195 193 188 176 171 181 226 273 282 280 282 280 277 277 272 266 267 269 269 264 260 262 274 285 290 293 297 302 310 316
164 160 165 147 136 147 152 151 149 139 119 116 118 111 112 149 167 141 93 63 359 356 45 43 359 270 260 251 237 229 224 218 216 218 221 223 227 226 219 210 201 197 201 204 202 200 198 196 192 190 190 191 190 191 192 192 191 193 191 180 182 213 237 251 280 288 288 292 295 289 277 266 262 263 263 258 252 252 259 271 282 286 289 294 297 300 303
135 138 149 144 149 167 167 155 149 142 121 107 127 135 136 150 160 144 125 126 295 346 13 354 329 301 280 274 265 258 256 250 240 232 227 223 222 223 222 216 205 201 206 209 207 203 200 196 192 192 192 190 189 190 189 184 179 177 175 177 197 238 258 261 275 288 291 293 292 287 280 273 268 269 271 268 266 265 266 272 279 281 280 285 290 293 301
133 132 139 143 151 164 159 151 160 161 154 158 178 168 164 183 197 184 171 181 204 276 293 288 296 302 298 296 289 272 264 261 257 249 237 225 220 221 221 220 215 212 213 213 210 205 200 196 193 191 191 189 187 188 185 180 174 170 169 181 204 231 259 268 274 282 285 282 277 272 272 272 272 275 278 276 272 272 274 277 279 280 283 287 289 292 300
154 156 172 178 176 179 179 178 179 176 174 187 200 200 207 223 226 229 228 217 223 243 249 252 267 280 283 287 288 278 266 260 255 248 238 228 224 223 223 223 222 220 219 218 213 205 199 195 191 188 187 184 183 183 182 179 175 171 173 189 207 228 252 264 274 283 283 276 269 265 266 268 268 267 267 267 266 269 274 278 279 283 285 287 289 295 303
169 165 179 180 179 190 197 191 187 188 193 198 206 216 220 221 225 231 232 228 230 240 248 255 262 265 266 269 269 267 262 257 251 244 236 228 227 228 226 223 220 219 220 221 216 207 203 199 191 185 182 180 179 179 178 174 170 169 176 186 202 226 248 258 268 280 283 278 269 266 265 263 260 255 253 257 260 265 271 275 278 282 286 286 289 296 304
119 96 99 126 144 156 177 183 189 203 211 213 219 221 220 224 228 233 236 239 242 248 256 262 262 262 261 259 258 258 256 251 251 253 248 236 232 232 227 218 213 212 213 214 212 207 202 197 190 182 177 175 175 174 171 167 163 166 173 182 197 224 246 259 268 276 280 275 269 266 263 259 255 253 254 259 263 264 271 278 281 284 286 287 290 295 301
115 117 109 107 111 109 113 154 206 235 243 250 259 258 252 250 249 249 253 256 258 261 265 265 263 261 257 251 253 259 260 257 258 260 255 246 241 234 221 210 204 200 195 197 201 200 194 189 185 180 173 169 169 170 168 164 159 160 173 190 207 224 239 255 266 271 276 273 268 264 262 259 257 253 254 262 270 275 280 286 287 287 287 288 292 295 298
103 110 105 96 91 90 81 48 310 276 266 264 266 268 270 271 270 270 272 272 271 272 271 267 264 262 259 258 260 262 260 260 262 260 256 249 238 223 208 200 196 190 183 184 189 188 182 179 177 174 168 164 164 164 163 162 160 162 182 208 221 224 236 252 262 268 272 271 264 261 258 254 251 252 262 275 284 288 291 293 292 291 292 294 296 298 300
89 90 90 85 80 68 359 308 287 274 270 269 268 266 268 273 276 277 277 274 273 273 272 269 267 266 266 267 268 263 258 257 258 256 252 242 224 207 198 194 190 187 186 186 181 175 170 168 169 170 168 166 163 158 154 157 161 165 183 207 218 228 245 259 267 273 272 265 259 259 255 247 249 265 281 288 292 294 297 298 298 299 300 301 302 304 307
88 80 71 60 39 339 307 297 288 278 273 274 275 275 277 279 280 279 277 276 276 276 275 273 272 273 272 270 268 264 259 256 253 249 240 225 210 201 198 196 195 196 195 186 175 167 164 165 167 168 168 166 160 152 150 157 164 168 179 200 215 230 249 264 274 274 269 263 260 265 265 264 272 282 288 290 292 295 297 298 302 304 305 305 307 309 310
83 71 53 27 343 321 313 303 296 293 291 288 287 288 289 290 289 286 281 278 277 277 275 274 273 272 270 267 265 264 263 259 253 245 230 211 200 196 194 193 195 194 187 177 167 162 165 167 166 163 163 162 154 147 153 171 180 174 177 203 222 235 259 276 276 269 263 261 264 272 282 287 289 290 290 290 292 296 298 301 306 306 306 308 309 310 311
83 64 33 356 329 322 317 308 304 305 303 299 296 296 296 295 291 286 282 281 279 278 275 272 270 269 269 267 265 264 264 261 255 238 215 197 189 188 186 181 178 175 171 165 159 160 165 166 164 160 159 157 149 146 156 174 178 164 168 206 237 268 284 282 272 264 260 259 265 279 290 295 296 295 295 295 297 301 303 306 308 308 308 310 312 312 314
80 52 20 357 342 335 326 317 312 308 302 299 299 301 302 300 294 288 285 283 281 278 276 273 270 269 268 266 263 261 258 254 243 222 204 195 190 184 177 169 166 165 162 157 157 160 161 160 160 159 156 151 151 156 162 165 159 155 167 194 251 290 285 273 263 258 256 262 276 290 298 302 300 299 302 304 305 307 309 310 311 311 311 313 314 315 316
82 60 33 10 352 337 326 315 308 303 301 302 304 306 307 307 303 298 294 291 286 281 278 275 273 270 265 260 257 254 246 233 217 200 192 190 189 184 175 164 159 160 160 157 158 160 158 154 153 153 150 148 155 163 167 163 154 148 147 147 198 263 254 248 251 251 253 270 287 295 303 308 308 309 311 313 313 313 314 315 316 316 316 318 318 318 319
99 81 52 12 341 326 316 308 306 308 311 311 312 315 318 319 317 311 307 302 295 289 283 277 272 266 260 256 251 240 221 203 190 181 174 166 164 171 168 158 152 154 157 156 155 155 153 149 146 146 148 153 158 164 166 158 143 131 130 134 152 200 210 222 239 244 256 278 290 294 305 314 316 316 317 318 318 318 318 320 320 320 319 320 320 321 322
112 107 66 351 338 335 329 321 321 323 318 312 319 341 344 336 332 329 324 318 310 303 296 287 277 266 259 255 247 230 212 199 187 176 169 159 150 152 154 151 149 152 154 151 149 148 148 147 146 147 151 157 162 164 159 146 133 129 133 134 136 161 182 206 224 232 248 274 289 301 312 314 315 321 322 321 320 319 319 318 320 320 320 321 323 324 326
123 120 26 356 354 352 344 335 331 326 314 310 353 24 12 356 353 359 358 352 344 336 324 311 296 280 265 250 223 191 179 175 174 176 176 169 156 150 149 148 148 150 150 148 146 147 147 147 149 150 152 155 157 154 144 139 137 136 134 130 130 145 156 169 187 199 214 244 310 326 326 319 315 319 322 323 322 321 318 319 321 322 323 325 327 328 329
98 44 15 8 5 2 356 352 355 6 24 49 62 55 38 27 30 33 31 31 33 32 30 33 40 51 90 133 139 139 136 129 127 140 152 147 141 140 143 144 146 147 146 145 144 145 147 150 153 152 152 155 156 146 139 139 137 136 137 138 143 147 151 156 166 178 196 232 304 325 334 334 329 324 321 323 326 326 324 325 327 328 330 332 333 333 334
31 33 29 23 18 15 19 32 53 70 79 89 97 91 69 60 61 57 50 51 54 56 60 66 71 75 84 93 101 111 120 119 114 120 131 135 135 137 141 143 143 144 142 139 139 143 149 154 152 148 148 153 155 149 144 140 135 136 145 148 149 155 164 168 172 196 230 255 282 296 305 320 334 332 323 317 324 327 325 326 330 331 333 334 335 335 336
87 85 71 58 43 41 56 74 85 90 96 103 110 105 87 76 72 64 58 58 62 64 67 72 75 75 78 82 86 91 101 108 112 118 126 129 131 134 137 138 141 143 142 139 140 145 150 151 149 147 147 148 147 147 147 144 139 145 155 158 158 168 180 187 207 246 258 265 276 277 269 283 317 331 325 315 316 317 315 318 324 327 329 332 331 330 333
118 111 103 96 77 65 75 88 95 97 101 104 105 102 95 85 76 71 69 71 72 70 70 75 80 82 83 84 88 93 100 108 116 123 127 127 128 130 133 138 144 147 143 138 139 144 148 150 150 148 143 138 138 144 151 150 147 150 165 175 178 196 224 243 260 276 282 280 276 271 265 272 295 316 318 311 308 307 303 306 315 322 328 332 333 331 334
131 128 128 131 122 99 92 99 105 106 108 112 113 111 105 98 92 91 90 88 87 86 83 80 83 89 93 96 100 104 108 114 121 127 131 131 131 130 131 136 145 149 146 143 142 146 150 155 155 150 142 137 136 138 140 137 134 145 175 197 210 238 263 279 288 294 295 290 284 281 280 279 282 292 299 301 304 306 305 308 318 327 331 333 333 333 334
137 144 147 146 137 120 110 113 117 119 119 120 121 120 115 110 109 108 104 98 97 99 99 95 91 93 101 109 113 116 120 124 129 135 139 141 141 141 140 141 146 153 157 159 158 157 157 159 158 154 148 143 136 132 130 127 125 140 181 207 226 250 283 306 311 310 307 303 298 292 286 278 270 270 282 290 299 308 314 319 326 328 325 323 322 325 328
Height
802 800 799 797 797 799 799 799 799 798 796 793 792 794 793 789 791 795 795 798 800 799 802 805 805 807 809 809 809 810 811 813 813 814 815 815 816 817 818 818 820 822 823 824 825 825 825 825 825 825 826 828 829 831 832 833 835 836 838 839 840 842 845 848 851 852 852 853 855 857 860 860 860 860 862 864 864 864 864 865 866 867 868 868 869 869 870
798 798 799 797 796 796 796 798 800 798 797 796 796 799 798 794 795 797 796 800 800 797 798 802 803 805 807 808 810 811 812 813 814 815 816 817 818 819 819 819 820 822 823 823 825 825 825 825 825 825 826 827 830 832 832 833 834 835 836 836 837 839 841 843 846 847 848 850 852 854 857 859 857 857 859 862 863 863 862 862 863 864 865 866 867 868 868
798 798 798 796 796 795 796 800 802 799 799 801 800 802 802 800 802 802 799 803 806 800 796 800 804 806 808 811 813 814 814 814 814 816 817 818 819 819 819 820 821 822 824 825 825 825 825 826 826 827 827 827 830 830 830 831 832 833 834 835 836 837 839 841 843 844 845 846 849 851 853 854 853 853 856 859 862 862 861 861 861 862 863 864 864 865 866
806 799 799 800 795 791 794 802 808 807 806 808 809 809 808 807 806 805 802 805 809 804 800 804 808 810 812 814 815 816 816 815 815 817 818 819 820 819 820 821 821 822 824 826 826 826 826 826 827 828 828 828 829 829 830 831 832 832 833 834 835 837 839 841 842 844 845 846 847 849 850 851 851 852 854 857 859 860 860 859 859 860 861 862 862 863 864
813 805 803 799 794 798 808 813 815 814 811 811 811 809 808 808 807 804 803 803 803 803 803 808 813 814 815 815 815 816 817 817 817 817 819 820 820 820 820 821 822 823 824 826 827 827 827 827 828 829 829 829 829 829 830 831 832 833 833 834 835 836 838 840 842 844 845 845 846 847 849 850 851 852 853 856 857 858 858 858 858 858 860 860 860 862 863
814 813 806 801 808 822 825 816 812 813 812 810 812 812 811 809 805 803 803 802 801 801 803 808 813 815 815 816 815 815 817 818 818 819 819 820 820 820 821 822 823 824 826 827 828 828 828 829 829 830 830 831 831 832 832 832 833 834 835 835 836 836 838 840 841 842 843 844 845 847 847 849 850 851 852 854 856 857 856 856 856 857 858 858 858 860 862
817 816 811 818 832 830 817 810 809 809 809 809 812 814 812 808 807 805 805 804 802 802 803 806 811 814 815 816 816 817 817 818 818 820 820 820 820 821 822 823 825 826 827 829 829 829 830 831 832 832 832 833 834 834 835 835 836 836 837 837 838 839 840 841 841 841 842 843 845 846 846 847 849 850 851 853 855 855 855 855 855 855 856 856 856 857 860
822 819 820 830 834 820 809 812 811 808 809 810 812 814 812 811 811 809 808 807 806 806 807 809 812 815 816 817 819 819 819 819 819 820 821 821 821 822 823 824 826 828 829 830 830 831 831 832 833 834 835 836 836 837 837 838 839 840 840 840 841 842 842 843 843 843 844 845 846 846 846 847 848 849 851 853 854 854 854 854 854 854 854 855 855 856 858
824 820 824 828 825 820 818 818 814 814 816 815 814 816 816 815 812 810 810 811 810 810 811 813 815 816 818 823 825 822 821 821 821 821 822 823 823 823 825 826 828 830 831 832 832 833 833 834 835 836 838 838 838 839 839 840 842 843 843 843 844 844 845 846 846 846 846 847 847 847 846 846 847 849 850 851 853 853 854 854 853 854 854 854 855 856 858
825 820 824 829 828 829 826 820 816 815 815 816 815 816 817 817 814 812 811 811 812 813 814 816 816 817 824 830 829 824 823 823 823 824 824 825 826 826 827 829 830 832 833 834 835 835 835 836 838 838 839 840 840 841 842 842 844 845 846 846 847 847 848 849 849 849 849 849 848 848 848 848 849 849 850 851 852 853 853 854 854 854 854 855 856 857 859
825 819 822 828 830 829 825 820 815 812 813 816 815 813 817 820 817 813 813 812 812 812 813 815 815 817 825 831 827 824 824 825 825 827 827 828 829 830 830 831 832 834 835 835 837 838 838 839 840 840 841 841 841 843 845 846 846 847 849 850 850 850 851 852 851 851 851 851 851 851 852 851 851 851 851 852 852 852 853 854 854 855 855 856 857 858 859
824 821 823 827 828 825 822 818 812 811 813 815 817 821 824 821 818 816 815 814 813 812 813 813 813 814 818 823 824 824 827 829 830 830 830 831 832 832 833 834 834 835 837 837 839 840 841 842 842 842 842 842 842 844 846 848 849 850 852 853 853 852 852 852 854 854 854 854 854 854 853 853 852 852 852 853 853 853 853 854 854 855 855 857 857 858 859
820 821 824 828 827 821 819 816 813 812 812 815 824 830 827 821 819 818 816 815 814 813 814 814 814 814 815 817 821 824 828 832 835 835 833 834 835 835 835 836 836 837 838 839 840 842 843 843 844 844 843 843 844 845 846 848 850 852 853 853 854 853 852 852 855 856 855 855 855 855 854 853 853 853 853 853 853 853 853 854 854 855 857 858 859 859 860
825 823 824 829 828 822 819 817 813 811 814 820 826 826 821 820 820 818 816 817 816 815 816 816 817 818 818 819 822 826 829 832 836 838 837 835 836 838 838 838 838 838 840 842 842 844 845 845 846 845 845 845 846 847 847 849 851 852 853 854 853 853 852 854 856 857 856 855 855 855 855 854 854 854 854 854 854 854 854 855 855 856 858 859 860 860 861
830 827 827 832 831 824 822 819 814 812 818 823 824 821 818 819 820 817 817 817 816 816 817 818 819 820 822 824 826 828 830 832 834 837 838 837 838 839 840 841 841 840 842 844 844 845 846 846 847 847 846 847 848 849 849 850 852 852 853 853 853 854 855 856 858 858 857 857 857 857 856 855 855 855 855 856 856 856 856 856 857 858 859 860 861 861 861
827 827 828 830 827 823 823 822 819 820 822 823 823 822 819 818 818 818 816 816 817 816 817 819 821 821 823 826 827 829 833 835 835 837 838 838 840 841 841 842 843 842 843 845 846 847 847 847 848 848 848 849 850 851 852 853 853 853 854 854 855 857 857 858 859 859 858 858 858 858 858 857 857 857 857 857 858 858 858 858 858 859 859 860 861 861 861
828 827 826 825 824 824 825 824 824 824 823 823 823 822 819 818 818 818 816 816 817 817 817 819 821 822 824 826 828 830 833 835 836 836 838 840 841 842 842 843 844 844 845 846 847 848 848 849 849 850 850 850 851 852 854 855 855 855 856 857 857 858 859 859 859 859 859 859 859 859 858 858 858 858 858 858 858 859 859 859 859 859 860 860 860 860 861
829 828 826 826 825 824 824 824 825 825 824 823 822 821 819 819 818 817 817 817 817 817 818 819 821 823 825 826 829 831 834 836 837 837 838 840 841 842 843 844 844 845 846 847 849 849 850 851 851 851 851 852 852 854 855 856 856 857 857 858 858 859 860 860 860 860 860 860 860 859 859 859 859 859 859 859 859 859 859 859 860 860 860 860 860 860 860
828 828 827 826 825 825 825 824 823 824 824 823 822 821 820 820 819 818 817 817 817 818 818 819 821 823 825 827 830 832 834 836 838 838 838 840 841 842 843 844 845 846 847 848 849 850 851 852 852 853 853 853 854 855 856 857 857 858 858 858 859 859 860 860 860 860 860 860 860 860 860 860 860 860 860 860 859 859 859 859 860 860 860 860 860 860 860
827 827 826 826 826 826 826 824 823 823 823 823 822 822 821 821 820 819 819 818 818 818 818 819 821 823 825 827 829 831 833 835 837 837 838 840 841 842 843 845 846 847 848 849 850 850 851 853 853 854 855 855 856 856 857 858 858 858 858 859 859 860 860 860 860 860 860 860 861 861 861 861 861 861 861 861 860 860 860 860 860 860 860 860 860 860 860
827 826 827 828 827 825 824 824 824 823 823 823 822 822 821 821 820 820 821 821 820 820 820 820 821 823 826 827 828 830 832 833 835 836 838 839 841 842 843 844 846 848 849 849 850 851 852 853 854 855 855 856 857 857 857 858 858 858 859 860 860 860 861 861 861 861 861 861 861 861 861 862 862 862 862 861 861 861 861 860 860 860 860 860 860 860 860
826 824 823 825 826 824 824 824 823 823 824 824 822 822 821 821 821 821 822 822 823 823 823 822 823 824 826 827 828 829 830 831 833 835 837 839 840 841 842 843 845 847 849 849 850 852 853 854 855 855 856 856 857 857 858 858 858 859 859 860 861 861 861 862 862 862 862 862 862 862 862 862 862 862 862 861 861 861 861 861 860 860 860 860 860 860 860
823 820 819 822 823 822 822 823 823 823 824 823 823 823 823 823 823 822 822 823 824 824 824 824 824 824 825 827 828 829 830 832 833 834 835 837 838 839 841 842 843 846 849 850 851 852 853 854 855 855 856 856 857 857 858 858 858 859 860 860 861 862 862 863 863 863 863 863 863 863 863 862 862 862 862 862 861 861 861 861 860 860 860 859 859 859 859
820 818 819 821 821 821 822 823 823 824 824 824 824 824 824 824 824 823 823 823 823 824 824 825 825 825 826 827 828 829 830 832 833 834 835 836 837 838 840 841 841 844 847 850 851 852 853 854 854 855 855 856 857 857 858 858 858 859 860 860 861 862 862 863 863 864 864 864 864 864 863 863 863 862 862 862 862 861 861 860 860 860 860 859 859 859 858
818 818 819 821 821 821 822 823 823 824 825 825 825 824 824 825 824 824 824 823 823 824 824 824 825 826 827 828 828 829 830 831 832 833 834 836 838 839 840 840 840 842 845 848 850 852 853 853 854 854 855 856 856 857 857 858 858 859 859 860 861 862 862 863 863 863 863 863 863 863 863 863 863 862 862 862 861 861 861 860 860 860 860 859 859 859 858
818 818 820 821 822 822 823 824 824 825 825 825 825 825 826 826 825 825 825 824 824 825 824 825 825 826 827 828 829 830 831 832 833 834 835 836 837 838 838 839 839 841 844 847 849 851 852 852 853 854 855 855 856 856 857 857 858 858 859 860 861 862 862 863 863 863 863 863 863 863 862 862 862 862 861 861 861 861 861 860 860 860 859 859 859 858 858
819 819 819 821 822 822 822 822 823 824 825 826 826 826 826 827 826 826 826 825 825 825 825 825 826 826 827 828 829 830 832 833 834 835 835 835 835 835 836 837 838 841 843 845 847 849 850 851 852 853 854 855 855 856 856 857 857 858 858 859 860 861 862 862 863 863 863 863 863 863 862 862 862 862 861 861 861 860 860 860 859 859 859 859 858 858 858
818 818 818 820 821 821 821 822 823 825 826 826 826 826 826 827 826 826 826 826 826 826 826 826 826 827 827 828 829 830 831 832 834 834 835 834 835 835 835 836 838 840 842 844 846 848 849 850 851 852 853 854 854 855 856 856 857 858 858 859 860 861 861 861 862 862 862 862 862 862 862 862 862 861 861 861 860 860 860 859 859 859 859 858 858 857 857
817 818 818 819 820 820 821 822 823 824 825 825 826 826 826 826 826 826 826 827 827 827 827 827 827 827 827 827 828 829 829 830 832 832 833 834 835 835 836 837 839 840 842 844 845 846 847 848 850 851 852 853 854 854 855 856 857 857 858 858 859 860 860 861 861 861 861 861 861 862 862 861 861 861 860 860 860 859 859 859 859 858 858 858 857 857 856
816 817 818 819 820 821 821 822 823 824 824 825 825 826 826 826 826 826 826 827 827 827 827 827 827 827 827 827 827 828 828 828 829 830 831 832 834 835 836 838 839 841 842 843 843 844 845 846 848 849 850 851 853 854 854 855 856 857 857 858 859 860 860 860 860 860 860 860 860 860 860 860 860 860 860 859 859 858 858 858 858 857 857 857 856 856 855
815 817 818 819 820 820 821 822 823 823 824 825 825 825 825 825 826 826 827 827 827 827 827 827 827 827 827 827 827 827 827 827 828 828 829 830 831 833 835 836 838 839 839 839 840 842 843 845 847 848 849 850 852 853 854 855 855 856 857 858 858 859 859 859 859 859 859 859 859 859 859 859 859 859 858 858 858 857 857 857 856 856 856 855 855 855 855
815 818 819 819 820 820 821 822 823 823 824 824 824 824 825 825 825 826 826 826 827 827 827 827 827 827 827 827 827 826 826 826 827 827 828 828 829 830 832 834 835 836 836 837 838 840 841 843 845 846 847 849 850 851 853 854 855 855 856 857 858 858 858 859 859 859 859 858 858 858 858 858 858 858 857 857 857 856 856 856 855 855 854 854 854 854 854
814 816 818 818 819 820 821 821 822 822 822 823 823 824 824 825 825 825 825 826 826 826 826 826 826 826 826 826 826 825 825 825 825 826 826 826 827 827 829 830 832 833 835 835 836 838 840 842 843 844 846 847 849 850 852 853 854 855 855 856 857 857 858 858 858 858 858 857 857 857 857 857 857 856 856 856 855 855 855 854 854 854 853 853 853 853 853
810 811 812 813 815 817 818 819 820 821 821 822 823 823 823 824 824 824 824 825 825 825 825 825 825 825 825 825 825 824 824 824 824 823 823 824 824 825 826 827 829 831 833 834 835 837 840 841 841 843 844 846 848 849 850 851 853 854 854 855 856 856 857 857 857 857 857 856 856 856 856 856 855 855 855 855 854 854 854 853 853 852 852 852 852 851 851
809 810 812 813 814 815 816 817 818 819 820 820 821 822 822 823 823 823 823 823 823 823 823 823 823 823 823 823 823 823 822 822 822 821 821 821 822 823 824 825 827 829 830 831 832 835 837 839 839 841 842 844 846 848 849 850 851 852 853 854 855 855 855 856 856 856 855 855 855 855 854 854 854 854 854 853 853 853 852 852 851 851 851 850 850 850 849
811 811 813 814 815 816 817 818 818 819 819 820 820 821 821 821 821 821 822 821 821 821 821 821 821 821 820 820 820 820 820 820 819 819 819 819 819 820 821 822 823 825 826 828 829 831 834 836 837 839 841 843 845 846 847 848 849 851 852 853 853 854 854 854 854 854 854 854 854 853 853 853 853 852 852 852 852 851 851 851 850 850 849 849 848 848 848
812 812 814 815 816 817 818 818 819 820 820 820 820 820 820 820 820 820 820 820 820 820 819 819 818 818 818 818 817 817 817 817 817 817 817 817 817 817 818 819 821 822 823 824 825 828 831 833 835 837 839 841 843 844 846 847 848 849 851 852 852 852 852 852 852 853 852 852 852 852 851 851 851 851 851 851 850 850 849 849 848 848 847 847 846 846 846
813 814 815 816 817 818 818 818 819 820 819 819 819 819 818 818 818 818 818 818 817 817 817 816 816 816 815 815 815 814 814 814 814 814 814 814 815 815 816 817 818 819 820 821 823 826 829 831 833 836 838 840 841 842 843 845 846 848 849 850 851 851 851 851 851 851 851 851 851 850 850 850 850 850 849 849 849 848 848 847 847 846 846 845 845 844 844
814 815 816 817 817 818 818 818 818 818 818 818 817 817 816 817 816 816 816 815 815 815 814 814 813 813 812 812 812 811 811 811 811 811 811 812 812 813 814 814 815 816 817 819 821 825 827 830 832 834 836 837 839 840 842 843 845 846 847 849 849 849 849 849 849 849 849 849 849 849 849 849 849 848 848 848 847 847 847 846 846 845 844 844 843 843 842
815 816 817 817 817 818 818 818 818 817 817 817 816 815 815 815 814 814 813 813 812 812 812 811 811 810 810 809 809 808 808 808 808 808 809 810 811 812 813 814 815 816 817 819 822 824 826 829 831 833 834 836 837 838 840 842 843 844 846 847 847 847 847 847 847 848 848 848 848 848 848 848 847 847 847 846 846 846 845 845 844 844 843 843 842 841 841
816 817 817 817 817 817 817 817 817 816 816 815 815 814 814 813 813 812 811 810 810 809 809 808 808 807 807 806 806 805 805 805 806 806 807 808 809 810 812 813 814 815 817 820 822 824 826 828 830 832 833 835 836 837 839 841 842 843 844 845 845 845 845 845 846 846 846 847 847 847 847 846 846 846 845 845 845 844 844 844 843 843 842 841 841 840 840
816 817 817 817 817 817 817 816 816 815 815 814 813 813 812 812 811 810 809 808 807 807 806 805 805 804 804 804 803 803 803 803 804 804 805 806 807 808 809 811 814 816 818 820 822 824 826 828 830 832 833 835 836 837 838 840 841 842 843 844 844 844 844 844 845 845 846 846 846 846 845 845 845 844 844 844 843 843 843 843 842 842 841 841 840 839 839
816 817 816 817 817 816 816 816 815 814 814 813 812 812 811 810 809 808 807 806 805 804 803 803 802 801 801 800 800 800 800 801 802 803 804 805 806 807 808 810 813 815 817 820 822 824 826 828 830 832 833 834 835 837 838 839 840 841 842 842 842 843 843 844 844 844 845 845 845 845 844 844 843 843 843 843 842 842 842 841 841 841 840 839 839 838 837
816 816 816 817 817 816 815 815 814 814 813 812 811 811 810 809 808 807 806 805 803 802 801 800 799 798 798 797 797 797 798 799 800 802 803 805 807 808 809 810 812 815 818 820 822 824 827 829 830 832 834 835 836 837 838 839 839 840 841 841 842 842 843 843 844 844 844 844 844 844 843 843 842 842 842 841 841 841 840 840 840 840 839 838 838 837 836
816 816 816 816 815 815 814 814 813 813 812 811 811 810 810 809 808 807 805 804 802 801 799 798 796 795 795 794 794 795 796 798 798 800 801 803 805 808 810 812 814 816 819 821 823 825 828 829 831 832 834 835 835 836 837 838 838 839 840 840 841 841 842 843 843 843 843 843 843 843 843 842 842 841 841 841 840 840 839 839 839 839 838 838 837 836 835
815 815 815 815 814 814 814 813 812 812 811 811 810 810 810 809 808 807 805 804 802 800 798 796 794 793 792 792 793 794 796 797 798 799 799 800 802 806 810 813 815 817 820 822 824 826 828 830 831 832 833 834 835 836 836 837 837 838 839 840 840 841 842 842 843 843 843 843 842 842 842 841 841 840 840 839 839 839 839 838 838 838 837 837 836 835 835
814 814 814 814 814 814 813 812 812 811 810 810 810 810 810 810 809 807 806 804 802 800 798 796 794 793 792 792 793 794 796 797 799 800 801 802 804 808 812 815 817 819 821 823 825 826 828 829 831 832 832 833 834 835 836 836 837 837 838 839 840 840 841 842 842 842 842 842 841 841 841 840 840 839 839 838 838 838 838 837 837 837 836 836 835 835 834
814 814 814 814 814 813 813 812 811 811 811 811 811 811 811 810 809 808 807 805 804 802 800 799 797 796 796 795 795 796 797 798 799 802 804 805 808 812 815 817 819 821 823 824 826 827 828 829 830 831 832 832 833 834 835 836 837 837 838 839 839 840 840 841 841 841 841 841 841 840 840 840 839 839 838 838 837 837 837 837 836 836 835 835 834 834 833
813 813 814 814 814 814 813 812 811 811 812 812 812 812 812 811 810 809 809 807 806 805 804 803 802 801 801 800 800 800 800 801 802 805 807 809 811 815 817 819 821 823 824 825 826 827 829 830 831 832 832 832 833 834 835 836 836 837 838 839 839 839 839 840 840 840 840 840 840 839 839 839 838 838 837 837 837 836 836 836 835 835 835 834 833 833 832
813 813 814 814 814 814 813 812 812 812 812 812 812 812 812 812 811 811 811 810 809 808 808 807 806 805 805 805 805 805 806 807 808 810 812 813 815 817 819 821 822 824 825 826 827 828 829 830 831 832 832 832 833 833 834 835 836 837 837 838 838 838 838 839 839 839 839 838 838 838 837 837 837 836 836 836 835 835 835 835 835 834 834 833 832 831 830
813 813 814 814 814 814 813 813 813 813 813 813 813 813 813 813 813 813 812 812 812 811 811 810 810 809 809 809 809 810 810 812 813 814 816 817 818 819 821 822 824 825 826 827 828 829 830 831 831 832 832 832 832 833 833 834 835 836 837 837 837 837 837 837 837 837 837 837 836 836 836 835 835 835 835 835 834 834 834 834 833 833 832 832 831 830 829
812 813 814 814 814 814 814 813 814 814 813 813 813 813 813 814 814 814 814 814 813 813 813 813 813 812 813 813 813 813 814 815 816 817 818 819 820 821 823 824 825 826 827 828 829 830 831 831 831 832 832 832 832 832 833 833 834 836 836 836 836 837 837 836 836 836 836 835 835 834 834 834 834 834 834 833 833 833 833 832 832 832 831 830 829 828 827